Chino, CA

4:34 PM PDT on August 29, 2016 (GMT -0700)
Chino

Weather History for KCNO - November, 2011

Change the Weather History Date:

Saturday, November 5, 2011

  Actual Average Record
Temperature  
Mean Temperature 50 °F -  
Max Temperature 64 °F 70 °F 93 °F (2012)
Min Temperature 37 °F 44 °F 37 °F (2011)
Degree Days  
Heating Degree Days 16    
Moisture  
Dew Point 39 °F    
Average Humidity 84    
Maximum Humidity 100    
Minimum Humidity 35    
Precipitation  
Precipitation 0.00 in - - ()
Sea Level Pressure  
Sea Level Pressure 29.93 in    
Wind  
Wind Speed 1 mph (NW)    
Max Wind Speed 12 mph    
Max Gust Speed 17 mph    
Visibility 5 miles    
Events Fog    
Averages and records for this station are not official NWS values.
T = Trace of Precipitation, MM = Missing Value Source: NWS Daily Summary

Daily Weather History Graph

Daily Weather History Graph

Search for Another Location

Airport or City:

Trip Planner

Search our weather history database for the weather conditions in past years. The results will help you decide how hot, cold, wet, or windy it might be!

Date:

Astronomy

Nov. 05, 2011 Rise Set
Actual Time 7:13 AM PDT 5:54 PM PDT
Civil Twilight 6:47 AM PDT 6:20 PM PDT
Nautical Twilight 6:17 AM PDT 6:50 PM PDT
Astronomical Twilight 5:48 AM PDT 7:19 PM PDT
Moon 3:04 PM PDT (11/5) 2:39 AM PDT (11/5)
Length of Visible Light 11h 32m
Length of Day
10h 40m
Waxing Gibbous, 79% of the Moon is Illuminated
Nov 5
Waxing Gibbous
Nov 10
Full
Nov 18
Last Quarter
Nov 24
New
Dec 2
First Quarter

Hourly Weather History & Observations

Time (PDT) Temp. Windchill Dew Point Humidity Pressure Visibility Wind Dir Wind Speed Gust Speed Precip Events Conditions
12:53 AM 43.0 °F - 41.0 °F 93% 29.85 in 1.8 mi Calm Calm - N/A   Clear
1:07 AM 44.6 °F - 42.8 °F 93% 29.85 in 3.0 mi Calm Calm - N/A   Clear
1:17 AM 42.8 °F - 42.8 °F 100% 29.86 in 1.8 mi Calm Calm - N/A   Clear
1:44 AM 42.8 °F - 42.8 °F 100% 29.86 in 1.2 mi Calm Calm - N/A   Clear
1:50 AM 42.8 °F - 41.0 °F 93% 29.86 in 3.0 mi Calm Calm - N/A   Clear
1:53 AM 43.0 °F - 41.0 °F 93% 29.86 in 4.0 mi Calm Calm - N/A   Clear
2:01 AM 42.8 °F - 41.0 °F 93% 29.86 in 1.8 mi Calm Calm - N/A   Clear
2:19 AM 39.2 °F - 39.2 °F 100% 29.87 in 0.5 mi Calm Calm - N/A Fog Fog
2:22 AM 42.8 °F - 39.2 °F 87% 29.87 in 1.0 mi Calm Calm - N/A   Mist
2:25 AM 42.8 °F - 39.2 °F 87% 29.87 in 2.0 mi Calm Calm - N/A   Clear
2:38 AM 41.0 °F - 39.2 °F 93% 29.87 in 1.2 mi Calm Calm - N/A   Clear
2:48 AM 42.8 °F - 41.0 °F 93% 29.87 in 5.0 mi Calm Calm - N/A   Clear
2:53 AM 43.0 °F - 41.0 °F 93% 29.88 in 3.0 mi Calm Calm - N/A   Clear
2:58 AM 41.0 °F 39.0 °F 39.2 °F 93% 29.88 in 0.8 mi NE 3.5 mph - N/A   Clear
3:00 AM 41.0 °F 39.0 °F 39.2 °F 93% 29.88 in 0.5 mi ENE 3.5 mph - N/A Fog Fog
3:08 AM 42.8 °F 41.1 °F 41.0 °F 93% 29.88 in 0.8 mi ENE 3.5 mph - N/A   Clear
3:11 AM 39.2 °F - 39.2 °F 100% 29.88 in 0.8 mi Calm Calm - N/A   Mist
3:24 AM 39.2 °F - 37.4 °F 93% 29.89 in 0.5 mi Calm Calm - N/A Fog Fog
3:40 AM 42.8 °F 40.1 °F 41.0 °F 93% 29.89 in 1.0 mi NE 4.6 mph - N/A   Partly Cloudy
3:53 AM 42.1 °F - 41.0 °F 96% 29.90 in 1.0 mi Calm Calm - N/A   Clear
3:56 AM 39.2 °F - 39.2 °F 100% 29.90 in 0.5 mi Calm Calm - N/A Fog Fog
5:53 AM 37.9 °F 34.4 °F 36.0 °F 93% 29.95 in 0.2 mi North 4.6 mph - N/A Fog Fog
6:04 AM 37.4 °F - 37.4 °F 100% 29.95 in 1.0 mi Calm Calm - N/A   Mist
6:08 AM 37.4 °F - 37.4 °F 100% 29.95 in 2.0 mi Calm Calm - N/A   Scattered Clouds
6:24 AM 37.4 °F - 35.6 °F 93% 29.95 in 1.2 mi Calm Calm - N/A   Clear
6:53 AM 39.0 °F 35.7 °F 37.9 °F 96% 29.96 in 10.0 mi NNE 4.6 mph - N/A Fog Shallow Fog
7:53 AM 37.9 °F - 37.0 °F 97% 29.99 in 10.0 mi Calm Calm - N/A Fog Shallow Fog
9:53 AM 50.0 °F - 45.0 °F 83% 30.02 in 10.0 mi Calm Calm - N/A   Partly Cloudy
10:53 AM 54.0 °F - 46.0 °F 75% 30.03 in 10.0 mi Calm Calm - N/A   Scattered Clouds
1:53 PM 62.1 °F - 36.0 °F 38% 29.99 in 10.0 mi WSW 6.9 mph - N/A   Scattered Clouds
2:53 PM 62.1 °F - 34.0 °F 35% 29.98 in 10.0 mi WSW 10.4 mph - N/A   Scattered Clouds
3:53 PM 61.0 °F - 33.1 °F 35% 29.99 in 10.0 mi SW 11.5 mph 17.3 mph N/A   Scattered Clouds
4:53 PM 59.0 °F - 35.1 °F 41% 29.99 in 10.0 mi WSW 10.4 mph - N/A   Scattered Clouds
5:53 PM 54.0 °F - 36.0 °F 51% 30.00 in 10.0 mi WSW 6.9 mph - N/A   Clear
6:53 PM 52.0 °F - 39.0 °F 61% 30.01 in 10.0 mi West 6.9 mph - N/A   Clear
7:53 PM 50.0 °F - 39.9 °F 68% 30.03 in 10.0 mi West 6.9 mph - N/A   Clear
8:53 PM 48.9 °F - 39.9 °F 71% 30.04 in 10.0 mi West 5.8 mph - N/A   Clear
9:53 PM 46.9 °F - 39.0 °F 74% 30.04 in 10.0 mi WNW 3.5 mph - N/A   Clear
10:53 PM 42.1 °F - 37.9 °F 85% 30.05 in 10.0 mi Calm Calm - N/A   Clear
11:53 PM 44.1 °F 42.5 °F 39.0 °F 82% 30.05 in 9.0 mi East 3.5 mph - N/A   Clear